COSMOS 2251 DEB

Satellite information

Favourite Embed

Satellite Type and Status

DEBRISIN ORBIT

Key statistics

Satellite COSMOS 2251 DEB at a glance.

Uptime

11869

Days in orbit

Revolutions

≈ 14.4

Per day

Orbit

LEO

Low Earth Orbit

Inclination

74.0

Latest

Satellite identification and parameters

Extended collection of information and parameters for COSMOS 2251 DEB.

Object identification

Identified? True

Debris? True

Object name: COSMOS 2251 DEB

International designator: 1993-036BYP

Object number (NORAD): 53093

Object ID (CCSDS): 53093

Country: COMMONWEALTH OF INDEPENDENT STATES (CIS)

Current information (Y/N): Y

RCS size: SMALL

Orbital parameters

Period: 99.869 minutes

Inclination: 74.0363 deg

SMA: 7130.403 km

Apoapsis: 765.947 km

Periapsis: 738.59 km

RAAN: 300.3675 deg

Eccentricy: 0.00191833

Argument of periapsis: 17.2671 deg

Mean anomaly: 342.9134 deg

Mean motion: 14.41888275 rev/day

Mean motion (dot): 0.00004907 rev/day2

B* drag term: 0.0015030417 1/REarth

Two-line elements (TLE)

Creation date: Dec. 14, 2025, 3:07 a.m.

Reference frame: TEME

Reference center: EARTH

Epoch: Dec. 13, 2025, 7:50 a.m. UTC

TLE line 0: 0 COSMOS 2251 DEB

TLE line 1: 1 53093U 93036BYP 25347.32641489 .00004907 00000-0 15030-2 0 9990

TLE line 2: 2 53093 74.0363 300.3675 0019183 17.2671 342.9134 14.41888275177341

Live tracking on map

Real-time ground track for satellite COSMOS 2251 DEB.

In-orbit conjunctions

A list of the most updated potential collisions computed for object COSMOS 2251 DEB.

Target Orbit TCA Probability of collision Miss distance Type
RUBIN 9.1/RUBIN 9.2/PSLV SSO 2025-10-26 00:10:25 0.000120825 514.0 (m) PAYLOAD

Associated space launch

Military communications satellite. Destroyed in a collision with Iridium 33.

COSMOS 2251 DEB was lifted into orbit during the mission ‘Kosmos-3M | Strela-2M 51’, on board a Kosmos-3M space rocket.

The launch took place on June 16, 1993, 4:17 a.m. from 132/1 (132L).

For more information about the launch, click the button.

Launch to space Kosmos-3M | Strela-2M 51
Kosmos-3M | Strela-2M 51

Agency: N/A

Status: Launch Successful

Launch date: June 16, 1993, 4:17 a.m. UTC

Rocket: Kosmos-3M

Launch pad: 132/1 (132L)

Location: Plesetsk Cosmodrome, Russian Federation

...

Latest news about this satellite

There are no fresh news available about this satellite. Check back as we update our databases every day.


Newsletter sign-up

Weekly statistics, charts and insights to help you stay on top of the space industry.